Location: Kaiser
(34.0939°N, 117.4889°W)
Time: 03:07:40
(UTC+00:00)

H-2A R/B - Pass Details

Date: 29 October 2020
Orbit: 528 x 653 km, 98.3° (Epoch: 26 November)

Event Time Altitude Azimuth Distance (km) Brightness Sun altitude
Rises 13:35:24 0° 13° (NNE) 2,906 6.0 -7.3°
Reaches altitude 10° 13:37:38 10° 14° (NNE) 1,977 5.2 -6.8°
Maximum altitude 13:41:56 85° 103° (ESE) 604 2.6 -6.0°
Drops below altitude 10° 13:46:02 10° 192° (SSW) 1,887 5.1 -5.1°
Sets 13:48:08 0° 193° (SSW) 2,762 5.9 -4.7°
